Vertical_Velocity
1 -2 -5 5 -0 2 2 -4 -5 -3 -16 -4 -0 -6 -9 -1 3 2 -0 9 -0 -2 -3 -8 7 -2 1
-2 -3 2 -4 -1 -2 2 3 3 -6 -6 -3 3 -4 0 2 0 1 3 1 0 -2 -1 10 -3 -3 -6
-25 -5 -7 -1 -6 -1 -4 -7 2 1 -5 -11 -1 -3 -1 -3 4 -0 3 4 1 -2 1 -1 0 -0 -0
-0 -10 7 -2 1 1 -4 -3 -5 -3 -8 2 -3 -5 -9 -7 -6 -5 -3 -7 -7 -5 -7 -3 0 -2 -6
15 2 -9 -6 -1 -3 -5 -2 0 -3 -11 5 -4 -3 -5 -7 -3 0 -2 -5 0 -2 -2 1 -3 -4 -6
-5 -0 -5 -2 -4 0 4 -1 -33 10 -5 -9 7 -2 -4 2 2 -2 1 2 1 5 2 -0 2 -3 4
4 1 -5 2 9 -3 1 4 -3 -9 5 -19 8 -9 -1 -1 3 0 1 1 1 1 -1 -3 -3 -6 -5
1 -3 9 2 8 9 2 -1 -7 -3 8 -7 -0 -11 -9 -7 -3 -2 -0 -1 -2 -4 -4 -0 3 3 -1
-2 -4 -0 2 6 5 -4 4 -14 -13 3 4 -2 -13 4 -10 -5 -2 -2 -2 0 -3 -4 -4 -7 -4 1
-5 -5 2 -2 1 7 4 3 4 -14 8 11 0 10 -14 -1 -3 1 -8 0 -0 0 -1 -2 -3 4 -2
-4 -5 -5 -1 1 2 5 8 5 2 4 27 -3 -2 13 -18 -2 4 5 -5 -1 -2 3 1 1 4 -2
-5 -3 -2 -4 -4 0 2 2 8 9 -6 5 4 12 7 -3 -9 -12 4 1 1 -4 -0 0 2 2 5
-2 -3 0 1 -1 -3 3 2 -0 0 -1 1 5 1 8 0 -3 -8 3 -13 3 4 -1 1 -3 1 -5
-3 -1 -1 -2 -2 3 -4 -4 -5 -7 9 6 6 6 -4 7 8 -6 2 12 -6 -1 2 -0 -1 4 5
-1 -1 -1 -1 -3 -1 1 -1 5 -5 -12 -6 7 6 4 2 -6 7 -1 -5 8 12 -0 -0 -1 4 5
2 2 -1 -3 -4 -2 5 2 -2 -2 -3 0 -8 -18 -9 -12 2 -2 3 1 1 2 3 5 -5 15 19
0 -1 -0 3 0 -2 -1 2 -1 -1 3 3 -2 1 -4 -1 -7 17 3 -2 -2 -6 5 2 7 3 19
Height
1394 1389 1385 1381 1377 1373 1369 1365 1361 1358 1355 1349 1343 1337 1330 1324 1320 1316 1313 1311 1309 1307 1306 1305 1305 1305 1305
1386 1382 1378 1374 1368 1363 1359 1355 1350 1345 1341 1336 1330 1324 1318 1313 1309 1305 1301 1298 1297 1294 1293 1292 1291 1290 1291
1381 1376 1370 1366 1359 1355 1350 1343 1338 1334 1331 1324 1319 1313 1307 1303 1298 1293 1290 1286 1283 1281 1280 1279 1279 1279 1279
1376 1368 1364 1359 1354 1346 1338 1335 1327 1324 1316 1311 1308 1302 1297 1292 1287 1282 1277 1274 1271 1269 1267 1266 1266 1266 1267
1370 1365 1359 1352 1346 1339 1331 1323 1316 1315 1305 1299 1294 1288 1282 1277 1272 1268 1264 1261 1259 1256 1254 1253 1252 1252 1253
1366 1358 1352 1346 1339 1333 1326 1318 1303 1307 1298 1287 1286 1275 1270 1265 1260 1257 1254 1250 1246 1243 1242 1240 1239 1239 1239
1359 1353 1346 1341 1334 1326 1320 1313 1303 1295 1292 1277 1274 1263 1259 1252 1249 1244 1241 1237 1233 1230 1228 1226 1226 1225 1226
1354 1348 1342 1336 1330 1322 1314 1305 1295 1288 1285 1271 1264 1254 1247 1241 1236 1231 1228 1224 1220 1217 1215 1213 1212 1211 1210
1348 1342 1335 1328 1323 1316 1307 1299 1287 1279 1275 1266 1256 1247 1238 1228 1224 1221 1218 1213 1209 1204 1201 1199 1197 1196 1194
1339 1333 1328 1321 1316 1311 1303 1293 1285 1272 1268 1262 1250 1246 1229 1221 1217 1210 1203 1198 1194 1190 1187 1184 1182 1181 1176
1332 1326 1320 1315 1309 1303 1297 1290 1280 1271 1263 1258 1247 1240 1236 1218 1206 1201 1197 1188 1182 1176 1171 1168 1165 1164 1160
1327 1321 1316 1309 1303 1296 1290 1283 1276 1268 1258 1254 1245 1238 1229 1218 1207 1194 1189 1181 1174 1167 1162 1156 1153 1149 1146
1324 1318 1312 1305 1297 1290 1284 1277 1269 1262 1255 1249 1241 1233 1227 1217 1206 1193 1184 1174 1169 1161 1153 1146 1140 1136 1131
1321 1314 1308 1301 1293 1287 1278 1271 1262 1253 1250 1244 1238 1231 1221 1212 1205 1193 1184 1175 1163 1156 1147 1139 1132 1126 1120
1317 1310 1304 1297 1290 1283 1276 1269 1261 1252 1243 1238 1234 1227 1219 1211 1202 1194 1184 1173 1162 1152 1142 1133 1123 1115 1108
1313 1308 1301 1294 1286 1280 1274 1268 1260 1252 1244 1239 1231 1221 1214 1209 1202 1193 1185 1174 1161 1150 1140 1129 1116 1104 1097
1310 1304 1298 1291 1284 1277 1271 1265 1258 1252 1246 1240 1233 1227 1219 1211 1204 1199 1188 1177 1165 1151 1141 1130 1121 1108 1101